Regional Weather Roundup
Issued by NWS

Home | Current Version | Previous Version | Text Only | Print | Product List | Glossary Off
Versions: 1 2 3 4 5 6 7 8 9 10 11 12 13 14 15 16 17 18 19 20 21 22 23 24 25 26 27 28 29 30 31 32 33 34 35 36 37 38 39 40 41 42 43 44 45 46 47 48 49 50

000
ASUS43 KLOT 191558
RWRIL

ILLINOIS REGIONAL WEATHER ROUNDUP
NATIONAL WEATHER SERVICE CHICAGO/ROMEOVILLE IL
1100 AM CDT SAT APR 19 2014

NOTE: "FAIR" INDICATES FEW OR NO CLOUDS BELOW 12,000 FEET WITH NO
SIGNIFICANT WEATHER AND/OR OBSTRUCTIONS TO VISIBILITY.

* THESE STATIONS ARE NOT UNDER NWS QUALITY CONTROL. THEY ALSO MAY NOT
  REPORT WEATHER SUCH AS PRECIPITATION OR FOG.

ILZ001-002-007-009-015-016-024-191700-
NORTHWEST ILLINOIS

CITY           SKY/WX    TMP DP  RH WIND       PRES   REMARKS
MOLINE         SUNNY     60  26  27 SE13G21   30.29F
$$

ILZ003-004-008-010-011-017-018-191700-
NORTH CENTRAL ILLINOIS

CITY           SKY/WX    TMP DP  RH WIND       PRES   REMARKS
ROCKFORD       NOT AVBL
$$

ILZ005-006-012>014-019>023-191700-
NORTHEAST ILLINOIS

CITY           SKY/WX    TMP DP  RH WIND       PRES   REMARKS
CHICAGO-OHARE  MOSUNNY   51  35  54 E8        30.36F
CHICAGO-MIDWAY PTSUNNY   50  37  61 E5        30.36F
AURORA         SUNNY     57  35  43 E12       30.34F
WAUKEGAN       SUNNY     41  33  73 E12       30.38F
DUPAGE AIRPORT SUNNY     55  35  47 E9        30.34F
WHEELING       SUNNY     48  36  63 VRB6      30.38F
NORTHERLY ISL    N/A     44  36  73 NE7         N/A
$$

LMZ740>746-191700-
SOUTHERN LAKE MICHIGAN

STATION/POSITION SKY/WX   TEMP    WIND        PRES    VSBY  WAVE
                          AIR SEA DIR/SP/G                  HT/PER
                          (F)     (DEG/KT/KT) (MB)    (MI)  (FT/S)
WAUKEGAN HARBOR            37      90/  6/  9 1030.5F
HARRISON CRIB              38      70/  9/ 10   N/A
BURNHAM HARBOR             42      50/  6/  9   N/A
CALUMET HARBOR             42      50/  6/  9 1029.2F
MICHIGAN CITY              50      80/  8/ 12   N/A
$$

ILZ025>027-034>036-040-047-049-050-058-095>099-191700-
WEST-CENTRAL ILLINOIS

CITY           SKY/WX    TMP DP  RH WIND       PRES   REMARKS
$$

ILZ028>032-037-038-041>044-048-051>054-059>061-191700-
CENTRAL ILLINOIS

CITY           SKY/WX    TMP DP  RH WIND       PRES   REMARKS
PEORIA         NOT AVBL
SPRINGFIELD    SUNNY     63  36  36 SE8       30.31S
TAYLORVILLE    NOT AVBL
$$

ILZ033-039-045-046-055>057-062-063-191700-
EAST-CENTRAL ILLINOIS

CITY           SKY/WX    TMP DP  RH WIND       PRES   REMARKS
CHAMPAIGN      SUNNY     65  34  31 E13       30.31F
MATTOON        SUNNY     63  33  32 SE9       30.30F
$$

ILZ079-100>102-191700-
SOUTHWEST ILLINOIS

CITY           SKY/WX    TMP DP  RH WIND       PRES   REMARKS
ALTON          SUNNY     63  41  45 E7        30.30S
CAHOKIA*       SUNNY     66  45  46 E6        30.29S
$$

ILZ064>066-069>071-074>076-080>082-084>086-088>090-092>094-191700-
SOUTH-CENTRAL ILLINOIS

CITY           SKY/WX    TMP DP  RH WIND       PRES   REMARKS
CARBONDALE     SUNNY     67  45  45 SE6       30.27F
MARION         SUNNY     68  45  42 E8        30.28F
$$

ILZ067-068-072-073-078-083-087-091-191700-
SOUTHEAST ILLINOIS

CITY           SKY/WX    TMP DP  RH WIND       PRES   REMARKS
$$

ABBREVIATIONS USED IN REMARKS
   TC - TEMPERATURE IN CELSIUS
  WCI - WIND CHILL INDEX
   HX - HEAT INDEX
  VSB - VISIBILITY
$$




USA.gov is the U.S. government's official web portal to all federal, state and local government web resources and services.